{"data":{"norad_id":57762,"intl_designator":"2023-133F","name":"CHECKMATE 10","alt_names":[],"object_type":"PAYLOAD","status":"ACTIVE","operator":null,"country":"US","launch_date":"2023-09-02","launch_site_code":"AFWTR","launch_vehicle":null,"mission":null,"orbit_class":"UNKNOWN","rcs_meters":null,"size_class":null,"mass_kg":null,"dimensions":null,"purposes":[],"wikipedia_slug":null,"has_3d_model":false,"image_url":null,"decayed_at":null,"tle_current":{"epoch":"2026-09-22T13:02:13.644672Z","epoch_age_seconds":129626,"freshness":"FRESH","line1":"1 57762U 23133F   26265.54321348  .00000068  00000+0  50143-4 0  9990","line2":"2 57762  80.9966 273.9340 0007530 105.0430 255.1560 13.85475843154511","mean_motion":13.85475843,"eccentricity":0.000753,"inclination_deg":80.9966,"raan_deg":273.934,"arg_perigee_deg":105.043,"mean_anomaly_deg":255.156,"bstar":5.0143e-5,"rev_number":15451,"period_min":103.93541015352,"perigee_km":939.01464676746,"apogee_km":950.04258118211,"semimajor_km":7322.6656139748,"source":"CELESTRAK","updated_at":"2026-09-23T09:00:18.338121Z"}}}